Reflectivity
-20 -20 -20 -20 -20 -20 -20 -20 -20 -20 -20 -20 -20 -20 -20 -20 -20 -20 -20 -20 -20 -20 -20 -11 -20 -20 -20 -20 -20 -20 -20 -20 -20 -20 -20 -20 -20 -20 -20 -20 -20 -20 -20 -20 -20 -20 -20 -20 -20
-20 -20 -20 -20 -20 -20 -20 -20 -20 -20 -20 -20 -20 -20 -20 -20 -20 -20 -20 -20 -20 -20 -20 -20 -20 -20 -20 -20 -20 -20 -20 -20 -20 -20 -20 -20 -20 -20 -20 -20 -20 -20 -20 -20 -20 -20 -20 -20 -20
-20 -20 -20 -20 -20 -20 -20 -20 -20 -20 -20 -20 -20 -20 -20 -20 -20 -20 -20 -20 -20 -20 -20 -20 -20 -20 -20 -20 -20 -20 -20 -20 -20 -20 -20 -20 -20 -20 -20 -20 -20 -20 -20 -20 -20 -20 -20 -20 -20
-20 -20 -20 -20 -20 -20 -20 -20 -20 -20 -20 -20 -20 -20 -20 -20 -20 -20 -20 -20 -20 -20 -20 -20 -20 -20 -20 -20 -20 -20 -20 -20 -20 -20 -20 -20 -20 -20 -20 -20 -20 -20 -20 -20 -20 -20 -20 -20 -20
-20 -20 -20 -20 -20 -20 -20 -20 -20 -20 -20 -8 -20 -20 -20 -20 -20 -20 -20 -20 -20 -20 -20 -20 -20 -20 -20 -20 -20 -20 -20 -20 -20 -20 -20 -20 -20 -20 -20 -20 -20 3 -20 -20 -20 -20 -20 -20 -20
-20 -20 -20 -20 -20 -20 -20 -20 -20 -20 -14 -15 -20 -20 -20 -20 -20 -20 -20 -20 -20 -20 -20 -20 -20 -20 -20 -20 -20 -20 -20 -20 -20 -20 -20 -20 -20 -20 -20 -20 -20 14 -20 -17 -20 -20 -20 -20 -20
-20 -20 -20 -20 -20 -20 -20 -20 -20 -20 -15 -20 -20 -20 -20 -20 -20 -20 -20 -20 -20 -20 -20 -20 -20 -20 -20 -20 -20 -20 -20 -20 -20 -20 -20 -20 -20 -20 -20 -20 12 7 -20 1 -20 -20 -20 -20 -20
-20 -20 -20 -20 -20 -20 -20 -20 -20 -20 -20 -20 -20 -20 -20 -20 -20 -20 -20 -20 -20 -20 -20 -20 -20 -20 -20 -20 -20 -20 -20 -20 -20 -20 -20 -20 -20 -20 -20 -20 -20 -20 -20 -20 -20 -20 -20 -20 -20
-20 -20 -20 -20 -20 -20 -20 -20 -20 -20 -20 -20 -20 -20 -20 -20 -20 -20 -20 -20 -20 -20 -20 -20 -20 -20 -20 -20 -20 -20 -20 -20 -20 -20 -20 -9 -20 -20 -14 -20 -12 -20 -20 -20 -20 -20 -20 -20 -20
-20 -20 -20 -20 -20 -20 -20 -20 -20 -20 -20 -20 -20 -20 -20 -20 -20 -20 -20 -20 -20 -20 -20 -20 -20 -20 -20 -20 -20 -20 -20 -20 -20 -20 8 -20 -6 -14 -9 -4 -20 -20 -20 -20 -20 -20 -20 -20 -20
-20 -20 -20 -20 -20 -20 -20 -20 -20 -20 -20 -20 -20 -20 -20 -20 -20 -20 -20 -20 -20 -20 -20 -20 -20 -20 -20 -20 -20 -20 -20 -20 -20 -10 7 -0 3 -5 -20 -1 -20 -20 -20 -20 -20 -20 -20 -20 -20
-20 -20 -20 -20 -20 -20 -20 -20 -20 -20 -20 -20 -20 -20 -20 -20 -20 -20 -20 -20 -20 -20 -20 -20 -20 -20 -20 -20 -20 -20 -20 -20 -20 -0 6 -13 4 3 -20 -20 -20 -20 -20 -20 -20 -20 -20 -20 -20
-20 -20 -20 -20 -20 -20 -20 -20 -20 -20 -20 -20 -20 -20 -20 -20 -20 -20 -20 -20 -20 -20 -20 -20 -20 -20 -20 -20 -20 -20 -20 -20 -20 7 6 5 -0 2 -20 -20 -20 -20 -20 -20 -20 -20 -20 -20 -20
-20 -20 -20 -20 -20 -20 -20 -20 -20 -20 -20 -20 -20 -20 -20 -20 -20 -20 -20 -20 -20 -20 -20 -20 -20 -20 -9 -8 -20 -20 -20 -20 0 0 1 9 -9 -15 3 -20 -20 -20 -20 -20 -20 -20 -20 -20 -20
-20 -20 -20 -20 -20 -20 -20 -20 -20 -20 -20 -20 -20 -20 -20 -20 -20 -20 -20 -20 -20 -20 -20 -20 -20 -20 1 -2 -4 -1 -20 -9 5 1 4 7 2 7 5 -18 -20 -20 -20 -20 -20 -20 -20 -20 -20
-20 -20 -20 -20 -20 -20 -20 -20 -20 -20 -20 -20 -20 -20 -20 -20 -20 -20 -20 -20 -20 -20 -20 -20 -20 -18 -0 -20 -16 -20 0 -18 -1 -2 -18 8 8 1 -12 -20 -6 -20 -20 -20 -20 -20 -20 -20 -20
-20 -20 -20 -20 -20 -20 -20 -20 -20 -20 -20 -20 -20 -20 -20 -20 -20 -20 -20 -20 -20 -20 -20 -15 -11 -1 -14 3 -7 2 -14 -10 -9 -20 6 9 10 -5 -20 -2 6 -20 -20 -20 -20 -20 -20 -20 -20
-20 -20 -20 -20 -20 -20 -20 -20 -20 -20 -20 -20 -20 -20 -20 -20 -20 -20 -20 -20 -20 -9 -19 -20 3 7 5 10 4 6 -5 0 9 -20 8 9 6 -8 9 24 -3 -20 -20 -20 -20 -20 -20 -20 -20
-20 -20 -20 -20 -20 -20 -20 -20 -20 -20 -20 -20 -20 -20 -20 -20 -20 -20 -20 -20 -20 -20 -20 -20 -20 -2 8 16 7 5 3 -19 1 -12 5 18 -17 5 -6 -14 18 -17 -20 -20 -20 -20 -20 -20 -20
-20 -20 -20 -20 -20 -20 -20 -20 -20 -20 -20 -20 -20 -20 -20 -20 -20 -20 -20 -20 -20 -20 -20 -20 -20 -20 -20 -19 8 -20 -8 -7 -8 6 11 12 16 18 -16 6 16 18 19 -16 -20 -20 -20 -20 -20
-20 -20 -20 -20 -20 -20 -20 -20 -20 -20 -20 -20 -20 -20 -20 -20 -20 -20 -20 -20 -20 -20 -20 -20 -20 -20 -20 -20 3 -14 -20 -20 -20 -20 -20 -20 -16 -10 -7 15 17 13 -20 -20 -8 -20 -20 -20 -20
-20 -20 -20 -20 -20 -20 -20 -20 -20 -20 -20 -20 -20 -20 -20 -20 -20 -20 -20 -20 -20 -20 -20 -20 -20 -20 -20 -20 -20 -6 -20 -17 -20 -20 -20 -20 -20 -20 -17 -20 0 18 5 -19 -20 -20 -20 -20 -20
3 -20 -20 -20 -20 -20 -20 -20 -20 -20 -20 -20 -20 -20 -20 -20 -20 -20 -20 -20 -20 -20 -20 -20 -20 -20 -20 -20 -20 -20 -20 -20 -20 2 3 6 2 -20 -13 -10 -5 -0 18 17 17 -20 -17 9 -20
-2 -20 -20 -20 -20 -20 -20 -20 -20 -20 -20 -20 -20 -20 -20 -20 -20 -20 -20 -20 -20 -20 -20 -20 -20 -20 -20 -20 -20 -20 -20 -20 -20 -20 -12 -8 3 12 2 -20 -14 9 -1 23 26 20 -19 15 10
-14 -13 -20 -20 -20 -20 -20 -20 -20 -20 -20 -20 -20 -20 -20 -20 -20 -20 -20 -20 -20 -20 -20 -20 -20 -20 -20 -20 -20 -20 -20 -20 -20 -20 -20 -20 -20 -12 -14 -0 3 -20 -20 -10 11 20 24 -14 -11
8 -1 11 3 -20 -20 -20 -20 -20 -20 -20 -20 -20 -20 -20 -20 -20 -20 -20 -20 -20 -20 -20 -20 -20 -20 -20 -20 -20 -20 -20 -20 -20 -20 -20 -20 -12 4 -17 -18 -12 -20 -20 -20 -20 13 11 16 -14
5 -6 -6 8 -16 -20 -20 -20 -20 -20 -20 -20 -20 -20 -20 -20 -20 -20 -20 -20 -20 -20 -20 -20 -20 -20 -20 -20 -20 -20 -20 -20 -20 -20 -20 -20 -20 -1 -17 -20 -20 -20 -20 -20 -20 -2 17 20 20
-20 -20 24 26 -16 -20 -20 -20 -20 -20 -20 -20 -20 -20 -20 -20 -20 -20 -20 -20 -20 -20 -20 -20 -20 -20 -20 -20 -20 -20 -20 -20 -20 -20 -20 -20 -17 -2 3 -20 -20 -20 -20 -20 -20 1 -2 24 16
-20 6 -13 -20 -20 -20 -20 -20 -20 -20 -20 -20 -20 -20 -20 -20 -20 -20 -20 -20 -20 -20 -20 -20 -20 -20 -20 -20 -20 -20 -20 -20 -20 -20 -20 -20 -6 3 -20 -20 -20 -20 -20 -20 -12 1 10 22 22
-20 -20 -20 -12 -5 -20 -20 -20 -20 -20 -20 -20 -20 -20 -20 -20 -20 -20 -20 -20 -20 -20 -20 -20 -20 -20 -20 -20 -20 -20 -20 -20 -20 -20 -20 -20 -8 -5 -20 -20 -20 -16 -9 -2 -1 20 -1 -16 14
Wind_Speed
9 7 4 6 7 6 6 8 3 2 4 1 6 8 3 7 6 6 4 6 6 17 18 18 14 15 15 16 15 15 15 16 17 16 15 14 14 13 13 13 11 11 11 11 11 11 10 9 8
5 4 5 3 7 8 9 7 2 6 10 12 6 8 9 0 0 3 5 6 14 17 16 18 14 15 15 15 15 15 15 15 15 16 15 14 13 12 13 12 11 10 12 11 11 11 9 8 7
4 4 5 5 4 4 9 3 6 10 6 6 3 4 0 4 4 3 5 9 16 17 18 17 15 15 16 15 14 14 15 15 14 15 15 14 13 12 11 11 10 10 11 11 12 11 9 7 5
4 5 4 7 3 5 4 6 9 10 4 1 5 4 4 7 2 5 8 11 16 17 16 18 14 16 17 17 16 15 13 13 13 14 14 13 13 12 11 10 10 11 11 11 11 10 9 6 5
4 4 5 6 6 1 2 4 5 8 6 3 4 5 3 5 5 6 9 11 15 15 13 17 11 15 17 17 16 15 13 12 13 14 14 13 12 11 10 9 8 8 10 11 11 9 7 5 4
6 5 7 8 8 3 3 1 3 8 5 3 5 2 5 4 3 6 8 11 12 13 14 16 12 10 12 14 15 14 13 12 11 11 12 12 11 11 10 8 9 10 10 9 9 8 7 6 3
11 7 10 6 5 6 2 1 3 7 4 8 1 1 5 6 6 6 9 8 11 12 13 13 15 14 8 7 10 12 12 12 11 11 10 10 10 9 9 8 7 10 9 10 8 6 5 5 5
7 6 6 7 8 7 4 3 3 8 5 5 4 5 7 5 7 7 7 8 11 12 12 13 13 13 14 13 8 8 9 11 10 10 10 10 10 9 8 8 8 9 8 9 9 7 5 4 5
4 7 9 8 8 3 6 4 2 6 8 4 3 4 4 5 8 9 8 8 9 11 13 13 13 13 13 12 12 10 9 9 10 10 9 11 10 11 12 5 11 7 8 8 8 7 7 6 5
11 9 8 3 6 7 3 7 5 6 6 4 2 2 3 7 9 11 11 11 12 15 16 15 15 14 13 11 12 13 12 11 12 12 13 10 8 9 8 9 8 8 9 9 8 8 8 10 6
10 14 6 8 9 10 10 11 6 10 11 5 5 2 4 8 9 11 12 12 12 11 11 14 14 13 14 11 9 8 8 9 10 13 10 9 8 7 8 7 8 9 11 9 10 9 8 5 4
11 12 9 8 6 10 11 8 11 12 13 11 9 5 7 9 9 12 12 11 10 13 14 13 14 12 11 8 8 9 8 9 9 10 14 9 7 8 9 7 9 8 8 8 8 6 5 7 6
13 10 8 10 9 12 11 13 14 15 15 14 11 10 9 10 10 8 9 9 10 10 10 11 11 11 10 13 9 10 9 9 10 9 11 10 10 9 8 8 7 8 8 8 8 7 8 8 9
3 7 9 9 12 14 15 16 5 5 4 8 6 6 5 9 11 9 9 10 9 8 8 9 10 10 9 10 12 9 9 10 7 9 9 11 9 7 8 8 8 8 8 8 8 8 8 8 8
8 13 13 14 14 10 6 11 13 6 0 3 3 3 5 9 7 9 9 10 9 8 8 8 8 10 11 10 11 9 10 10 8 10 11 13 10 7 9 8 8 7 7 8 8 9 9 8 8
9 7 12 5 7 6 8 7 10 7 1 3 2 2 3 7 7 5 6 9 11 9 8 10 9 11 12 10 8 8 10 8 9 8 9 13 13 12 10 9 8 8 7 8 7 9 9 9 9
11 12 10 6 6 6 12 3 11 11 4 3 3 4 3 4 7 9 9 7 4 6 7 8 8 9 10 10 9 8 10 8 8 7 8 12 13 11 7 9 9 10 9 9 9 9 9 9 9
13 13 6 12 7 8 10 13 9 12 8 5 4 5 6 6 9 10 12 11 9 7 4 4 5 3 6 7 7 6 5 5 8 6 8 11 11 12 10 9 12 11 10 10 10 11 10 9 9
6 9 13 6 6 9 12 18 16 11 9 9 7 8 7 8 9 10 12 13 13 13 10 8 4 3 4 5 4 4 6 6 6 5 7 8 7 12 14 9 10 12 12 13 14 12 13 11 10
14 13 16 11 8 10 14 17 19 18 14 10 10 9 9 9 10 10 12 12 13 12 11 11 9 7 3 5 5 4 3 4 6 5 6 7 8 9 9 11 10 15 12 14 14 15 12 11 12
16 16 14 14 7 13 18 23 25 3 5 7 8 10 11 11 10 10 10 11 10 11 11 11 10 10 9 4 4 3 3 2 4 7 8 11 12 12 12 12 12 12 13 13 16 16 18 14 14
16 15 16 15 11 11 3 9 7 14 12 13 13 13 13 12 9 8 8 9 8 8 7 9 9 10 10 10 3 6 6 7 6 7 7 9 13 14 13 13 13 13 11 13 16 16 16 15 16
11 4 10 11 14 15 18 12 14 12 13 16 16 16 14 10 9 8 7 6 8 8 9 9 9 9 9 8 7 6 8 9 7 8 11 11 10 12 13 13 12 12 11 14 15 17 18 15 14
1 8 6 7 10 17 18 17 14 15 18 19 17 17 15 11 8 6 5 4 7 7 8 8 10 9 9 10 9 8 8 9 8 9 8 8 7 7 11 12 12 12 13 13 13 16 18 17 16
17 13 6 11 11 14 3 12 15 5 4 20 20 18 13 9 6 5 5 6 6 7 7 6 8 9 9 9 9 10 10 10 11 10 8 8 6 6 10 12 13 10 13 13 13 15 17 19 17
23 19 9 10 14 14 9 11 5 8 9 17 17 16 12 7 5 4 4 6 7 7 8 9 10 11 10 9 10 9 10 7 8 9 9 9 9 8 6 8 13 13 14 12 12 12 14 16 16
12 22 14 11 11 8 11 8 7 12 15 16 16 15 8 5 4 2 3 5 6 7 7 7 8 9 10 10 9 11 10 10 9 10 10 9 11 10 11 10 10 11 12 13 13 11 13 12 14
14 10 7 5 7 10 10 16 7 19 19 18 16 12 7 4 2 2 4 5 6 7 7 7 9 11 11 10 10 9 10 10 9 9 10 10 11 12 11 11 12 10 13 13 13 12 12 14 12
17 14 9 7 9 6 11 5 9 18 19 20 15 7 4 2 3 5 6 7 7 7 8 9 10 12 13 12 11 11 11 10 9 8 8 8 10 9 10 11 10 9 11 12 13 14 14 16 14
21 23 22 8 8 9 8 5 2 8 17 16 11 4 2 1 5 7 7 8 10 10 12 13 13 15 14 12 12 12 11 11 9 8 7 8 9 7 7 7 6 7 8 11 14 14 13 17 16
Wind_Direction
173 199 233 233 235 247 151 143 26 216 233 218 293 246 294 335 327 26 60 150 160 152 157 169 157 154 147 139 136 134 137 137 136 135 134 137 138 138 136 134 135 145 137 136 130 126 123 121 116
164 185 224 261 253 215 119 105 199 334 305 305 265 217 243 83 61 84 134 145 160 152 153 164 159 157 149 142 141 141 139 139 139 138 138 140 139 138 136 136 141 147 147 144 136 131 126 124 121
185 239 259 271 261 253 119 102 8 338 329 239 223 246 46 85 100 54 76 147 159 154 161 151 161 158 152 147 146 144 144 145 144 141 140 142 142 141 140 140 145 149 153 149 139 135 134 135 129
200 186 192 256 183 93 18 35 7 349 25 108 276 211 138 45 36 42 121 150 160 158 161 138 162 160 155 152 153 151 152 149 145 142 143 144 146 148 149 149 154 159 158 145 136 142 140 142 135
215 239 230 239 241 120 306 358 351 359 5 277 216 147 83 81 71 100 128 149 157 156 155 159 162 161 158 158 157 154 155 151 150 150 148 148 150 149 148 159 176 185 143 134 140 143 146 145 139
221 281 232 225 213 182 266 54 319 360 2 112 204 189 85 101 107 109 133 152 158 159 151 157 159 160 161 160 156 155 154 151 153 152 150 152 153 151 152 167 180 148 124 121 140 146 155 145 140
257 243 265 274 237 242 137 3 344 344 20 37 354 199 79 138 98 127 134 152 159 160 163 161 172 167 148 155 157 154 153 153 156 154 149 145 144 149 150 157 145 135 143 129 146 145 150 144 128
256 261 250 229 221 241 135 256 327 323 4 346 319 61 102 85 136 136 138 151 165 169 171 171 174 176 176 175 160 154 155 155 155 153 153 148 147 152 154 148 142 139 140 142 149 146 138 123 115
237 245 243 237 228 146 157 273 117 309 285 353 22 0 40 124 155 158 161 165 174 176 181 181 181 181 181 182 170 161 165 160 155 164 152 155 182 176 161 127 129 147 139 141 143 135 127 126 105
225 236 257 244 257 266 286 283 315 278 256 197 166 165 146 160 188 191 196 187 190 187 189 189 188 186 185 189 174 188 183 185 189 188 177 196 183 190 196 135 141 149 136 134 138 135 146 198 169
214 247 258 231 250 268 275 275 268 268 256 234 272 298 184 185 208 215 212 211 203 201 198 193 191 192 195 196 188 191 189 194 196 197 184 197 183 173 191 169 179 177 177 176 179 170 198 188 202
248 242 261 255 262 256 264 292 266 263 271 283 273 302 267 219 214 221 222 214 202 199 199 199 194 195 209 211 202 203 203 200 204 199 195 188 193 187 196 199 191 193 185 186 193 184 167 180 186
237 255 254 252 241 252 268 257 267 279 272 274 285 272 252 237 240 243 250 232 224 212 204 200 200 202 205 215 206 212 212 202 212 202 204 202 205 196 200 201 198 200 187 189 192 185 187 177 172
12 259 250 255 251 253 255 261 236 233 335 273 248 263 281 267 256 240 235 244 227 231 223 211 211 200 206 221 224 213 215 216 211 212 202 215 217 203 212 207 210 204 196 190 194 190 183 184 172
269 268 255 250 249 243 234 232 218 187 301 159 11 356 4 356 292 255 265 250 244 227 215 228 209 211 207 214 231 228 225 221 204 216 207 197 206 199 218 212 217 216 215 196 192 186 188 181 178
252 246 257 134 200 171 223 255 162 148 121 173 342 56 50 50 34 11 321 287 270 237 222 195 206 207 215 204 212 223 238 222 229 217 207 213 208 204 201 215 211 208 202 198 203 197 183 183 181
211 257 214 181 229 245 225 268 172 194 314 287 201 157 114 77 51 32 16 3 303 247 236 241 233 211 211 212 214 219 236 234 226 222 226 215 210 196 212 221 215 200 204 202 198 199 199 182 183
239 227 215 252 165 219 227 244 229 225 246 273 207 156 138 94 51 43 40 42 53 71 66 14 340 259 228 224 213 214 230 237 245 237 218 222 219 205 187 231 215 203 205 199 199 199 196 194 183
274 269 267 222 256 288 259 266 263 254 239 211 202 175 138 101 80 64 56 52 58 55 62 61 69 274 245 214 184 206 220 222 235 244 243 240 224 216 214 212 220 203 211 207 194 193 193 193 180
223 250 260 273 275 254 268 264 271 265 268 247 195 168 141 127 101 78 64 56 53 54 47 50 45 33 348 219 193 206 209 227 226 223 230 222 221 224 212 206 216 208 211 205 198 197 190 196 182
222 236 253 262 252 260 263 271 252 131 155 160 165 145 141 127 109 90 78 64 54 45 35 38 32 34 31 47 192 134 140 195 223 227 222 221 206 208 212 214 229 217 209 201 199 201 195 190 187
229 223 250 260 267 270 143 283 177 162 162 171 159 155 142 133 116 97 84 70 60 44 36 29 24 25 28 10 353 220 256 262 253 250 239 236 224 223 214 222 218 221 209 213 202 199 200 199 196
246 181 237 258 265 273 252 253 253 177 180 175 164 154 146 134 123 106 81 63 51 26 15 10 8 16 17 13 4 334 312 307 323 310 293 267 246 224 223 217 221 217 213 220 205 202 205 205 201
111 177 210 242 253 248 244 242 250 214 200 173 164 159 150 135 120 109 79 39 28 18 2 353 349 351 355 351 344 332 314 301 293 290 292 279 274 256 240 228 222 219 221 221 223 209 207 209 208
196 179 223 224 210 252 306 223 244 101 167 169 165 155 147 135 117 84 48 23 4 354 343 338 336 331 331 326 320 318 310 302 290 286 283 280 267 239 244 238 236 222 220 222 217 218 211 209 211
202 195 210 252 250 257 132 236 201 98 143 154 154 153 145 130 106 70 23 357 346 335 324 321 320 316 316 308 301 296 292 293 295 290 288 278 275 278 272 249 239 235 234 223 220 219 216 212 210
200 219 228 266 282 271 234 169 148 148 147 157 159 158 148 127 103 64 346 338 323 326 325 317 303 299 300 299 290 286 289 289 288 289 292 291 288 283 278 259 246 238 237 224 213 214 216 210 207
179 185 163 215 215 240 232 237 255 176 173 169 164 164 158 149 173 319 320 331 330 331 321 309 302 303 303 289 283 281 279 277 279 282 285 290 292 287 281 266 255 237 226 219 210 214 210 204 201
197 200 203 200 231 262 272 257 5 176 176 175 162 165 164 194 274 310 330 338 325 316 319 316 313 313 311 304 291 276 269 267 273 279 291 301 297 282 265 262 253 235 227 217 214 214 203 203 198
214 206 200 190 170 238 285 253 357 158 171 170 158 164 147 273 331 339 341 341 339 336 333 324 318 310 303 299 286 270 259 261 265 280 302 310 307 312 295 282 258 246 244 232 223 217 208 199 194